User: anonymous   Login
Location: Unspecified
(0.0000°N, 0.0000°E)
Time: 18:46:35
(UTC+00:00)
Language:

CSTB 1 - Orbit

View from above orbital plane
View from above orbital plane
View from above satellite
View from above satellite

Ground track
Ground track

The orbit data is extracted from the following two-line orbital elements,

1 31122U 07012F   17145.79422572 +.00000210 +00000-0 +51186-4 0  9993
2 31122 098.0208 105.5551 0078102 197.6683 162.1799 14.60506283537463
Epoch (UTC): 25 May 2017 19:03:41
Eccentricity: 0.0078102
inclination: 98.0208°
perigee height: 636 km
apogee height: 747 km
right ascension of ascending node: 105.5551°
argument of perigee: 197.6683°
revolutions per day: 14.60506283
mean anomaly at epoch: 162.1799°
orbit number at epoch: 53746

The dashed part of the orbit path shows where the satellite is in the earth's shadow,  

DLR